User: anonymous
Location: *
(90.0000°N, 180.0000°W)
Time: 00:23:39
(UTC+02:00)
Language:

Cosmos 1825 - Orbit

View from above orbital plane
View from above orbital plane
View from above satellite
View from above satellite

Ground track
Ground track

The orbit data is extracted from the following two-line orbital elements,

1 17566U 87024A   14232.14087751  .00001765  00000-0  99322-4 0   697
2 17566 082.5055 230.0959 0005360 176.1691 229.7750 15.12644611497424
Epoch (UTC): 20 August 2014 03:22:51
Eccentricity: 0.0005360
inclination: 82.5055°
perigee height: 524 km
apogee height: 532 km
right ascension of ascending node: 230.0959°
argument of perigee: 176.1691°
revolutions per day: 15.12644611
mean anomaly at epoch: 229.7750°
orbit number at epoch: 49742

The dashed part of the orbit path shows where the satellite is in the earth's shadow,  

DLR